Mayo, Yukon Territory

10:55 PM PDT on August 24, 2016 (GMT -0700)
Mayo

Weather History for CYMA - February, 2014

Change the Weather History Date:

Friday, February 21, 2014

  Actual Average Record
Temperature  
Mean Temperature -18 °F -  
Max Temperature -3 °F 21 °F 41 °F (2008)
Min Temperature -32 °F -4 °F -45 °F (2007)
Degree Days  
Heating Degree Days 82    
Moisture  
Dew Point -23 °F    
Average Humidity 71    
Maximum Humidity 77    
Minimum Humidity 56    
Precipitation  
Precipitation 0.00 in 0.01 in - ()
Sea Level Pressure  
Sea Level Pressure 30.54 in    
Wind  
Wind Speed 1 mph ()    
Max Wind Speed 7 mph    
Max Gust Speed -    
Visibility 19.1 miles    
Events Snow    
Averages and records for this station are not official NWS values.
T = Trace of Precipitation, MM = Missing Value Source: Averaged Metar Reports

Daily Weather History Graph

Daily Weather History Graph

Search for Another Location

Airport or City:

Trip Planner

Search our weather history database for the weather conditions in past years. The results will help you decide how hot, cold, wet, or windy it might be!

Date:

Astronomy

Feb. 21, 2014 Rise Set
Actual Time 8:35 AM PST 5:59 PM PST
Civil Twilight 7:47 AM PST 6:48 PM PST
Nautical Twilight 6:53 AM PST 7:42 PM PST
Astronomical Twilight 5:58 AM PST 8:37 PM PST
Moon 2:13 AM PST (2/21) 9:47 AM PST (2/21)
Length of Visible Light 11h 00m
Length of Day
9h 23m
Waning Gibbous, 59% of the Moon is Illuminated
Feb 21
Waning Gibbous
Feb 22
Last Quarter
Mar 1
New
Mar 8
First Quarter
Mar 16
Full

Hourly Weather History & Observations

Time (PST) Temp. Windchill Dew Point Humidity Pressure Visibility Wind Dir Wind Speed Gust Speed Precip Events Conditions
12:00 AM -23.8 °F - -29.2 °F 76% 30.35 in 20.0 mi Calm Calm - N/A   Clear
1:00 AM -25.6 °F - -31.0 °F 76% 30.36 in 20.0 mi Calm Calm - N/A   Clear
2:00 AM -25.6 °F - -32.8 °F 69% 30.38 in 20.0 mi Calm Calm - N/A   Clear
3:00 AM -27.4 °F - -34.6 °F 69% 30.41 in 20.0 mi Calm Calm - N/A   Clear
4:00 AM -30 °F - -36 °F 57% 30.43 in 19 mi North 1.2 mph - -  
4:00 AM -29.2 °F - -36.4 °F 68% 30.43 in 20.0 mi Calm Calm - N/A   Clear
5:00 AM -31.0 °F - -38.2 °F 68% 30.45 in 20.0 mi Calm Calm - N/A   Clear
6:00 AM -31.0 °F - -36.4 °F 75% 30.48 in 20.0 mi Calm Calm - N/A   Mostly Cloudy
6:20 AM -27.4 °F - -34.6 °F 69% 30.48 in 10.0 mi Calm Calm - N/A Snow Light Snow
6:50 AM -25.6 °F - -32.8 °F 69% 30.48 in 20.0 mi Calm Calm - N/A   Overcast
7:00 AM -25.6 °F - -31.0 °F 76% 30.49 in 20.0 mi Calm Calm - N/A   Overcast
8:00 AM -22.0 °F - -27.4 °F 76% 30.51 in 15.0 mi Calm Calm - N/A   Overcast
9:00 AM -20.2 °F - -25.6 °F 76% 30.52 in 20.0 mi Calm Calm - N/A   Overcast
10:00 AM -18 °F - -24 °F 60% 30.54 in 19 mi North 1.2 mph - -   Overcast
10:00 AM -18.4 °F - -23.8 °F 76% 30.54 in 20.0 mi Variable 2.3 mph - N/A   Overcast
11:00 AM -14.8 °F - -20.2 °F 77% 30.56 in 20.0 mi East 2.3 mph - N/A   Overcast
12:00 PM -13.0 °F - -18.4 °F 77% 30.56 in 10.0 mi ESE 2.3 mph - N/A   Overcast
1:00 PM -9.4 °F - -14.8 °F 77% 30.57 in 20.0 mi Calm Calm - N/A   Overcast
2:00 PM -7.6 °F - -14.8 °F 71% 30.58 in 20.0 mi ESE 2.3 mph - N/A   Overcast
3:00 PM -4.0 °F -12.4 °F -11.2 °F 71% 30.58 in 20.0 mi East 3.5 mph - N/A   Mostly Cloudy
4:00 PM -3 °F - -10 °F 57% 30.59 in 19 mi East 2.3 mph - -  
4:00 PM -4.0 °F - -11.2 °F 71% 30.58 in 20.0 mi Calm Calm - N/A   Mostly Cloudy
5:00 PM -4.0 °F - -11.2 °F 71% 30.60 in 20.0 mi ESE 2.3 mph - N/A   Mostly Cloudy
6:00 PM -7.6 °F - -14.8 °F 71% 30.61 in 20.0 mi Calm Calm - N/A   Mostly Cloudy
7:00 PM -7.6 °F - -13.0 °F 77% 30.63 in 20.0 mi WSW 2.3 mph - N/A   Mostly Cloudy
8:00 PM -9.4 °F - -14.8 °F 77% 30.64 in 20.0 mi Variable 2.3 mph - N/A   Overcast
8:15 PM -7.6 °F -18.8 °F -13.0 °F 77% 30.64 in 20.0 mi North 4.6 mph - N/A Snow Light Snow
9:00 PM -5.8 °F -14.5 °F -13.0 °F 71% 30.64 in 20.0 mi North 3.5 mph - N/A Snow Light Snow
10:00 PM -8 °F - -15 °F 56% 30.66 in 19 mi North 6.9 mph - -   Overcast
10:00 PM -7.6 °F -20.6 °F -14.8 °F 71% 30.66 in 20.0 mi North 5.8 mph - N/A Snow Light Snow
11:00 PM -9.4 °F -24.3 °F -16.6 °F 71% 30.68 in 20.0 mi North 6.9 mph - N/A Snow Light Snow